Location: Aix
(43.5287°N, 5.4488°E)
Time: 10:03:26
(UTC+00:00)

Daily predictions for brighter satellites

Satellite Brightness Start Highest point End
(mag) Time Altitude Azimuth Time Altitude Azimuth Time Altitude Azimuth
Cosmos 2333 Rocket 2.5 16:23:13 10° S 16:28:46 54° ESE 16:34:22 10° NNE
Cosmos 1110 Rocket 4.3 16:24:52 10° NNW 16:30:05 77° WSW 16:35:16 10° SSE
Meteor 1-11 Rocket 4.5 16:26:30 10° N 16:31:53 34° ENE 16:37:13 10° SE
SJ-7 4.4 16:28:19 10° SSE 16:32:31 72° ENE 16:36:41 10° N
SL-8 R/B 3.9 16:28:02 10° WNW 16:32:52 81° SSW 16:37:42 10° ESE
RESURS DK-1 2.9 16:32:42 10° S 16:36:33 40° ESE 16:40:25 10° NE
Shenzhou-11 Module 2.2 16:34:10 10° WSW 16:36:51 52° SSE 16:39:32 10° E
Radarsat Rocket 4.2 16:31:08 10° SSE 16:37:29 83° WSW 16:43:23 10° NNW
Cosmos 2237 Rocket 3.3 16:34:14 10° SSE 16:38:42 24° ESE 16:43:10 10° NE
COSMO-SKYMED 1 4.3 16:36:19 10° ENE 16:38:45 15° E 16:41:11 10° SE
USA 267 3.3 16:32:56 10° SE 16:39:29 90° SW 16:46:04 10° NW
NOSS 3-4 (A) 3.7 16:34:35 10° SW 16:40:34 71° NW 16:46:57 10° NNE
STARLINK-46 2.7 16:38:01 10° SW 16:40:40 58° SE 16:43:16 11° ENE
NOSS 3-4 (C) 3.7 16:34:41 10° SW 16:40:41 72° NW 16:47:03 10° NE
ISS -2.6 16:38:02 10° NW 16:41:01 28° NNE 16:43:58 10° ENE
ATLAS 3B R/B 2.8 16:35:17 10° NW 16:42:03 88° SW 16:48:58 10° SSE
Cosmos 2322 Rocket 4.1 16:38:24 10° WSW 16:42:56 24° NW 16:47:30 10° N
Cosmos 1812 3.6 16:41:05 10° SSE 16:44:27 29° E 16:47:49 10° NNE
CZ-4B R/B 4.0 16:44:08 10° NNW 16:46:52 21° WNW 16:49:35 10° WSW
Exosat Rocket 4.1 16:42:28 10° S 16:47:41 41° ESE 16:52:21 10° NE
YAOGAN 1 4.3 16:45:41 10° E 16:47:43 13° ENE 16:49:45 10° NNE
Cosmos 44 Rocket 4.3 16:43:45 10° NW 16:48:17 49° WSW 16:52:49 10° SSE
Cosmos 1844 4.1 16:43:11 10° NNW 16:48:51 70° WSW 16:54:25 10° SSE
SL-16 R/B 4.3 16:45:01 10° W 16:49:07 20° NW 16:53:16 10° N
COBE Rocket 4.0 16:46:36 10° NNE 16:51:08 52° E 16:55:41 10° S
Feng Yun 1-1 Rocket 4.1 16:47:23 10° SSE 16:52:44 69° ENE 16:58:06 10° N
NOAA 12 4.4 16:50:28 10° SE 16:55:31 46° ENE 17:00:33 10° N
Cosmos 2219 Rocket 2.2 16:50:04 10° SSW 16:55:39 86° ESE 17:01:20 10° NNE
BREEZE-M R/B 3.9 16:52:17 10° W 16:58:29 42° NNW 17:01:16 14° NE
CORIOLIS 4.2 16:53:10 10° SSE 16:58:33 65° ENE 17:03:57 10° N
Cosmos 1844 Rocket 4.1 16:58:03 10° NW 17:03:16 42° WSW 17:08:28 10° S
Cosmos 1733 Rocket 3.0 16:59:02 10° N 17:03:22 60° E 17:07:41 10° SSE
Cosmos 1536 3.5 17:01:48 10° N 17:05:29 33° ENE 17:09:07 10° SE
SMAP 3.0 17:00:55 10° SSE 17:05:34 88° ENE 17:10:16 10° NNW
PSLV R/B 4.5 17:02:24 10° N 17:06:32 62° WNW 17:10:36 10° SSW
Cosmos 1980 4.0 17:03:25 10° S 17:08:45 45° ESE 17:13:46 12° NE
Cosmos 1500 3.2 17:05:08 10° N 17:08:51 56° E 17:12:32 10° SSE
CZ-4 R/B 2.4 17:06:28 10° ESE 17:09:36 23° ENE 17:12:43 10° NNE
Cosmos 1340 4.4 17:06:52 10° NNW 17:10:21 35° W 17:13:49 10° SSW
H-2A R/B 2.7 17:10:13 10° S 17:13:55 80° WSW 17:17:38 10° NNW
ATLAS 2AS CENTAUR R/B 4.0 17:11:12 10° WSW 17:18:41 42° NW 17:26:11 10° NNE
Lacrosse 5 rocket 1.3 17:14:46 10° SW 17:19:06 86° SE 17:21:46 21° NE
Aureole 1 Rocket 4.0 17:17:31 10° SE 17:18:52 16° ESE 17:18:52 16° ESE
Cosmos 304 Rocket 4.5 17:16:25 10° NNW 17:21:08 57° WSW 17:25:50 10° S
CSL-04 Rocket 4.2 17:16:35 10° SE 17:21:12 32° ENE 17:25:50 10° N
COSMOS 2428 3.1 17:15:41 10° SW 17:21:17 63° WNW 17:26:57 10° NNE
YAOGAN 6 3.0 17:18:43 10° SE 17:21:58 37° ENE 17:25:17 10° N
Meteor 1-5 Rocket 4.3 17:20:31 10° NNW 17:26:06 77° W 17:31:28 10° S
SKYMED 2 3.8 17:23:37 13° NNE 17:27:14 46° E 17:31:24 10° S
SL-4 R/B 2.6 17:25:28 10° W 17:29:04 43° NNW 17:31:03 24° NE
SeaSat 1 4.3 17:31:15 13° NNE 17:31:15 13° NNE 17:32:41 10° N
Cosmos 2251 Rocket 3.5 17:25:41 10° SSW 17:31:01 87° ESE 17:36:14 11° NNE
Cosmos 292 Rocket 4.3 17:26:37 10° N 17:31:09 37° ENE 17:35:38 10° SE
Cosmos 1092 Rocket 4.1 17:25:14 10° SSE 17:31:21 55° E 17:37:28 10° NNE
NOSS 0 Rocket 3.9 17:25:34 10° SSW 17:31:45 82° ESE 17:37:29 13° NNE
Cosmos 2242 Rocket 3.5 17:30:49 10° S 17:35:20 70° E 17:39:54 10° NNE
ATLAS 5 CENTAUR R/B 0.6 17:33:13 10° SW 17:35:41 72° NW 17:35:54 62° N
FengYun 1-2 T 4.1 17:32:07 10° SSE 17:37:32 67° ENE 17:42:59 10° N
Cosmos 1862 Rocket 3.9 17:33:58 10° SSW 17:38:17 67° W 17:42:39 10° N
ERBS 4.4 17:37:11 10° WNW 17:40:04 27° SW 17:42:58 10° S
Cosmos 1703 Rocket 3.8 17:36:35 10° SSE 17:40:49 45° E 17:42:45 28° NE
Okean-O 2.9 17:37:31 10° S 17:41:55 70° WSW 17:46:22 10° NNW
USA 215 4.3 17:44:09 17° NE 17:48:16 33° NNW 17:53:59 10° WNW
NOAA 11 4.4 17:47:38 10° SE 17:52:47 46° ENE 17:57:59 10° N
Envisat 3.4 17:48:34 10° S 17:53:36 65° W 17:58:40 10° NNW
Cosmos 1666 2.4 17:49:52 10° N 17:53:38 79° E 17:57:21 10° S
Cosmos 2278 Rocket 2.5 17:51:20 10° NNW 17:56:58 67° WSW 18:02:32 10° SSE
Cosmos 614 Rocket 4.4 17:54:36 10° S 17:59:01 38° ESE 17:59:01 38° ESE
Cosmos 407 Rocket 3.9 17:59:28 10° S 18:03:54 41° ESE 18:03:54 41° ESE
BREEZE-M DEB (TANK) 2.2 18:00:30 10° WNW 18:04:16 58° NNW 18:04:16 58° NNW
SL-16 R/B 2.3 18:04:06 10° S 18:09:32 49° ESE 18:09:56 48° E
Shenzhou-11 Module 3.9 18:09:13 10° W 18:10:38 27° W 18:10:38 27° W
Cosmos 2369 Rocket 4.2 18:08:08 10° N 18:09:07 13° N 18:09:07 13° N
Cosmos 2333 Rocket 4.0 18:08:34 10° WSW 18:13:22 27° NW 18:18:12 10° N
Cosmos 1908 Rocket 4.1 18:10:06 10° NNW 18:14:26 59° W 18:18:44 10° S
COSMO-SKYMED 1 3.2 18:12:09 18° N 18:15:15 53° WNW 18:19:28 10° SSW
Cosmos 1553 Rocket 4.0 18:11:35 10° N 18:17:50 56° ENE 18:24:07 10° SSE
ISS -2.6 18:14:37 10° WNW 18:17:00 41° WNW 18:17:00 41° WNW
Cosmos 1428 Rocket 4.3 18:12:08 10° S 18:18:17 79° E 18:23:48 14° N
Cosmos 2237 Rocket 2.9 18:16:50 10° SW 18:22:22 52° WNW 18:25:48 23° N
YAOGAN 1 2.8 18:18:58 10° S 18:23:15 67° WSW 18:27:34 10° NNW
BREEZE-M DEB (TANK) 3.6 18:25:16 10° WNW 18:27:30 30° W 18:27:30 30° W
Cosmos 2026 Rocket 4.1 18:28:38 10° SSW 18:34:41 69° W 18:40:45 10° N
Cosmos 2219 Rocket 4.5 18:36:39 10° W 18:40:23 18° NW 18:44:08 10° N
Okean 1-7 4.0 18:37:48 10° SSW 18:41:56 45° WNW 18:42:13 45° WNW
Meteor 1-18 Rocket 4.2 18:38:18 10° SSW 18:44:05 82° WNW 18:44:37 73° NNW
CZ-4 R/B 3.4 18:41:09 10° SSW 18:44:31 27° W 18:47:52 10° NW
Cosmos 1417 Rocket 4.3 18:42:24 10° N 18:48:34 90° NE 18:54:42 10° S
Cosmos 1655 Rocket 4.4 18:45:49 10° S 18:50:25 51° S 18:50:25 51° S
Cosmos 2297 4.0 18:51:41 10° NNW 18:56:48 65° WNW 18:56:48 65° WNW
Lacrosse 5 rocket 3.7 18:55:27 10° WNW 18:57:26 19° NW 18:57:26 19° NW
Cosmos 1943 Rocket 4.2 18:56:34 10° NNW 18:57:45 16° N 18:57:45 16° N
SL-16 R/B 4.3 19:49:04 10° WSW 19:51:52 23° W 19:51:52 23° W
